Location: Krasnoyarskiy Pitomnik
(51.1333°N, 71.6167°E)
Time: 09:31:36
(UTC+00:00)

Lacrosse 5 rocket - Pass Details

Date: 22 October 2021
Orbit: 459 x 633 km, 57.0° (Epoch: 06 December)

Event Time Altitude Azimuth Distance (km) Brightness Sun altitude
Exits shadow 22:35:40 31° 76° (ENE) 1,040 3.2 -30.8°
Drops below altitude 10° 22:38:07 10° 63° (ENE) 1,938 5.0 -30.4°
Sets 22:40:29 0° 60° (ENE) 2,869 6.1 -30.1°
